{"data":{"norad_id":43573,"intl_designator":"2018-061E","name":"IRIDIUM 155","alt_names":[],"object_type":"PAYLOAD","status":"ACTIVE","operator":null,"country":"US","launch_date":"2018-07-25","launch_site_code":"AFWTR","launch_vehicle":null,"mission":null,"orbit_class":"UNKNOWN","rcs_meters":null,"size_class":null,"mass_kg":null,"dimensions":null,"purposes":["comms"],"wikipedia_slug":null,"has_3d_model":false,"image_url":null,"decayed_at":null,"tle_current":{"epoch":"2026-05-24T19:24:06.307776Z","epoch_age_seconds":91258,"freshness":"FRESH","line1":"1 43573U 18061E   26144.80840634  .00000105  00000+0  30372-4 0  9992","line2":"2 43573  86.3966  66.4471 0002340  81.8721 278.2741 14.34218867410006","mean_motion":14.34218867,"eccentricity":0.000234,"inclination_deg":86.3966,"raan_deg":66.4471,"arg_perigee_deg":81.8721,"mean_anomaly_deg":278.2741,"bstar":3.0372e-5,"rev_number":41000,"period_min":100.40308582832,"perigee_km":775.98898165583,"apogee_km":779.33789626126,"semimajor_km":7155.8004389585,"source":"CELESTRAK","updated_at":"2026-05-25T13:38:14.812249Z"}}}